Location: Newark
(45.7425°N, 0.7617°W)
Time: 19:17:50
(UTC+00:00)

N. Korean satellite - Pass Details

Date: 25 January 2020
Orbit: 456 x 505 km, 97.2° (Epoch: 22 February)

Event Time Altitude Azimuth Distance (km) Brightness Sun altitude
Rises 17:54:12 0° 203° (SSW) 2,462 10.8 -9.9°
Reaches altitude 10° 17:56:44 10° 224° (SW) 1,594 10.2 -10.3°
Maximum altitude 17:59:05 17° 267° (W) 1,219 9.8 -10.7°
Drops below altitude 10° 18:01:27 10° 311° (NW) 1,608 9.7 -11.1°
Sets 18:04:02 0° 332° (NNW) 2,493 10.3 -11.5°
